contact:dominique.lefevre@mio.osupytheas.fr, maurice.libes@osupytheas.fr, didier.mallarino@osupytheas.fr
Project:EMSO http://www.emso-fr.org/EMSO-France
Depth: 2436.0 m
Title:EMSO Ligure Ouest : Data MII capteur CSTAR
DateTime,Latitude,Longitude,Instrument_Serial,Reference_Counts,Signal_Counts,Corrected_Signal_raw_counts,Calculated_Beam_c_inverse_meters,Internal_thermistor_counts
DateTime,Latitude,Longitude,Instrument_Serial,Reference_Counts,Signal_Counts,Corrected_Signal_raw_counts,Calculated_Beam_c_inverse_meters,Internal_thermistor_counts
2020-06-20T00:00:17,42.805,6.029,CST-1368DR,6173,8651,15144,0.123,551
2020-06-20T00:03:19,42.805,6.029,CST-1368DR,6173,8650,15143,0.123,551
2020-06-20T00:06:20,42.805,6.029,CST-1368DR,6173,8650,15144,0.123,551
2020-06-20T00:09:22,42.805,6.029,CST-1368DR,6173,8649,15141,0.124,551
2020-06-20T00:12:24,42.805,6.029,CST-1368DR,6173,8648,15140,0.124,551
2020-06-20T00:15:26,42.805,6.029,CST-1368DR,6173,8648,15139,0.124,551
2020-06-20T00:18:27,42.805,6.029,CST-1368DR,6173,8650,15144,0.123,551
2020-06-20T00:21:29,42.805,6.029,CST-1368DR,6173,8651,15145,0.123,551
2020-06-20T00:24:31,42.805,6.029,CST-1368DR,6173,8649,15142,0.123,551
2020-06-20T00:27:32,42.805,6.029,CST-1368DR,6173,8650,15143,0.123,551
2020-06-20T00:30:34,42.805,6.029,CST-1368DR,6173,8649,15141,0.124,551
2020-06-20T00:33:36,42.805,6.029,CST-1368DR,6173,8648,15139,0.124,551
2020-06-20T00:36:37,42.805,6.029,CST-1368DR,6173,8649,15141,0.124,551
2020-06-20T00:39:39,42.805,6.029,CST-1368DR,6173,8649,15141,0.124,551
2020-06-20T00:42:41,42.805,6.029,CST-1368DR,6173,8650,15144,0.123,551
2020-06-20T00:45:43,42.805,6.029,CST-1368DR,6173,8649,15142,0.123,551
2020-06-20T00:48:44,42.805,6.029,CST-1368DR,6173,8649,15141,0.124,551
2020-06-20T00:51:46,42.805,6.029,CST-1368DR,6173,8649,15141,0.124,551
2020-06-20T00:54:48,42.805,6.029,CST-1368DR,6173,8649,15141,0.124,551
2020-06-20T00:57:49,42.805,6.029,CST-1368DR,6173,8649,15142,0.123,551
2020-06-20T01:00:51,42.805,6.029,CST-1368DR,6173,8649,15141,0.124,551
2020-06-20T01:03:53,42.805,6.029,CST-1368DR,6173,8650,15143,0.123,551
2020-06-20T01:06:54,42.805,6.029,CST-1368DR,6173,8648,15139,0.124,551
2020-06-20T01:09:56,42.805,6.029,CST-1368DR,6173,8650,15143,0.123,551
2020-06-20T01:12:58,42.805,6.029,CST-1368DR,6173,8649,15141,0.124,551
2020-06-20T01:16:00,42.805,6.029,CST-1368DR,6173,8649,15141,0.124,551
2020-06-20T01:19:01,42.805,6.029,CST-1368DR,6173,8650,15143,0.123,551
2020-06-20T01:22:03,42.805,6.029,CST-1368DR,6173,8650,15143,0.123,550
2020-06-20T01:25:05,42.805,6.029,CST-1368DR,6173,8649,15141,0.124,551
2020-06-20T01:28:06,42.805,6.029,CST-1368DR,6173,8650,15143,0.123,551
2020-06-20T01:31:08,42.805,6.029,CST-1368DR,6173,8646,15137,0.125,551
2020-06-20T01:34:10,42.805,6.029,CST-1368DR,6173,8649,15141,0.124,551
2020-06-20T01:37:11,42.805,6.029,CST-1368DR,6173,8649,15141,0.124,551
2020-06-20T01:40:13,42.805,6.029,CST-1368DR,6173,8650,15143,0.123,551
2020-06-20T01:43:15,42.805,6.029,CST-1368DR,6173,8650,15143,0.123,551
2020-06-20T01:46:16,42.805,6.029,CST-1368DR,6173,8649,15141,0.124,551
2020-06-20T01:49:18,42.805,6.029,CST-1368DR,6173,8649,15141,0.124,551
2020-06-20T01:52:20,42.805,6.029,CST-1368DR,6173,8649,15142,0.123,551
2020-06-20T01:55:21,42.805,6.029,CST-1368DR,6173,8649,15141,0.124,551
2020-06-20T01:58:23,42.805,6.029,CST-1368DR,6172,8647,15139,0.124,551
2020-06-20T02:01:25,42.805,6.029,CST-1368DR,6173,8648,15139,0.124,551
2020-06-20T02:04:27,42.805,6.029,CST-1368DR,6173,8649,15141,0.124,551
2020-06-20T02:07:28,42.805,6.029,CST-1368DR,6172,8649,15143,0.123,551
2020-06-20T02:10:30,42.805,6.029,CST-1368DR,6173,8649,15141,0.124,551
2020-06-20T02:13:32,42.805,6.029,CST-1368DR,6172,8649,15143,0.123,551
2020-06-20T02:16:33,42.805,6.029,CST-1368DR,6172,8649,15144,0.123,551
2020-06-20T02:19:35,42.805,6.029,CST-1368DR,6172,8649,15143,0.123,551
2020-06-20T02:22:37,42.805,6.029,CST-1368DR,6172,8649,15144,0.123,551
2020-06-20T02:25:38,42.805,6.029,CST-1368DR,6172,8647,15141,0.124,551
2020-06-20T02:28:40,42.805,6.029,CST-1368DR,6172,8649,15143,0.123,551
2020-06-20T02:31:42,42.805,6.029,CST-1368DR,6173,8650,15143,0.123,551
2020-06-20T02:34:43,42.805,6.029,CST-1368DR,6172,8649,15143,0.123,551
2020-06-20T02:37:45,42.805,6.029,CST-1368DR,6172,8649,15143,0.123,551
2020-06-20T02:40:47,42.805,6.029,CST-1368DR,6172,8649,15144,0.123,550
2020-06-20T02:43:49,42.805,6.029,CST-1368DR,6172,8648,15142,0.123,551
2020-06-20T02:46:50,42.805,6.029,CST-1368DR,6172,8649,15143,0.123,551
2020-06-20T02:49:52,42.805,6.029,CST-1368DR,6172,8649,15144,0.123,551
2020-06-20T02:52:54,42.805,6.029,CST-1368DR,6172,8648,15142,0.123,551
2020-06-20T02:55:55,42.805,6.029,CST-1368DR,6172,8649,15143,0.123,551
2020-06-20T02:58:57,42.805,6.029,CST-1368DR,6172,8649,15143,0.123,551
2020-06-20T03:01:59,42.805,6.029,CST-1368DR,6172,8649,15143,0.123,551
2020-06-20T03:05:00,42.805,6.029,CST-1368DR,6172,8648,15142,0.123,551
2020-06-20T03:08:02,42.805,6.029,CST-1368DR,6172,8648,15142,0.123,551
2020-06-20T03:11:04,42.805,6.029,CST-1368DR,6172,8649,15144,0.123,551
2020-06-20T03:14:05,42.805,6.029,CST-1368DR,6172,8649,15143,0.123,551
2020-06-20T03:17:07,42.805,6.029,CST-1368DR,6172,8649,15143,0.123,551
2020-06-20T03:20:09,42.805,6.029,CST-1368DR,6172,8649,15144,0.123,551
2020-06-20T03:23:11,42.805,6.029,CST-1368DR,6172,8649,15143,0.123,551
2020-06-20T03:26:12,42.805,6.029,CST-1368DR,6172,8649,15144,0.123,551
2020-06-20T03:29:14,42.805,6.029,CST-1368DR,6172,8649,15143,0.123,551
2020-06-20T03:32:16,42.805,6.029,CST-1368DR,6172,8648,15142,0.123,551
2020-06-20T03:35:17,42.805,6.029,CST-1368DR,6172,8649,15144,0.123,551
2020-06-20T03:38:19,42.805,6.029,CST-1368DR,6172,8649,15143,0.123,551
2020-06-20T03:41:21,42.805,6.029,CST-1368DR,6172,8649,15144,0.123,551
2020-06-20T03:44:22,42.805,6.029,CST-1368DR,6172,8649,15144,0.123,551
2020-06-20T03:47:24,42.805,6.029,CST-1368DR,6172,8648,15142,0.123,551
2020-06-20T03:50:26,42.805,6.029,CST-1368DR,6172,8649,15143,0.123,551
2020-06-20T03:53:27,42.805,6.029,CST-1368DR,6172,8649,15143,0.123,551
2020-06-20T03:56:29,42.805,6.029,CST-1368DR,6172,8648,15142,0.123,551
2020-06-20T03:59:31,42.805,6.029,CST-1368DR,6172,8648,15142,0.123,551
2020-06-20T04:02:32,42.805,6.029,CST-1368DR,6172,8649,15143,0.123,551
2020-06-20T04:05:34,42.805,6.029,CST-1368DR,6172,8649,15143,0.123,551
2020-06-20T04:08:36,42.805,6.029,CST-1368DR,6172,8649,15144,0.123,551
2020-06-20T04:11:38,42.805,6.029,CST-1368DR,6172,8649,15143,0.123,551
2020-06-20T04:14:39,42.805,6.029,CST-1368DR,6172,8649,15144,0.123,551
2020-06-20T04:17:41,42.805,6.029,CST-1368DR,6172,8648,15142,0.123,551
2020-06-20T04:20:43,42.805,6.029,CST-1368DR,6172,8648,15142,0.123,551
2020-06-20T04:23:44,42.805,6.029,CST-1368DR,6172,8648,15141,0.124,551
2020-06-20T04:26:46,42.805,6.029,CST-1368DR,6172,8648,15142,0.123,551
2020-06-20T04:29:48,42.805,6.029,CST-1368DR,6172,8647,15141,0.124,551
2020-06-20T04:32:50,42.805,6.029,CST-1368DR,6172,8648,15142,0.123,551
2020-06-20T04:35:51,42.805,6.029,CST-1368DR,6172,8648,15142,0.123,551
2020-06-20T04:38:53,42.805,6.029,CST-1368DR,6172,8649,15144,0.123,551
2020-06-20T04:41:55,42.805,6.029,CST-1368DR,6172,8648,15142,0.123,551
2020-06-20T04:44:56,42.805,6.029,CST-1368DR,6172,8649,15143,0.123,551
2020-06-20T04:47:58,42.805,6.029,CST-1368DR,6172,8649,15144,0.123,551
2020-06-20T04:51:00,42.805,6.029,CST-1368DR,6172,8649,15143,0.123,551
2020-06-20T04:54:02,42.805,6.029,CST-1368DR,6172,8649,15143,0.123,551
2020-06-20T04:57:03,42.805,6.029,CST-1368DR,6172,8649,15143,0.123,551
2020-06-20T05:00:05,42.805,6.029,CST-1368DR,6172,8647,15139,0.124,551
2020-06-20T05:03:07,42.805,6.029,CST-1368DR,6172,8648,15142,0.123,551
2020-06-20T05:06:08,42.805,6.029,CST-1368DR,6172,8647,15141,0.124,551
2020-06-20T05:09:10,42.805,6.029,CST-1368DR,6172,8648,15142,0.123,551
2020-06-20T05:12:12,42.805,6.029,CST-1368DR,6172,8647,15141,0.124,551
2020-06-20T05:15:13,42.805,6.029,CST-1368DR,6172,8648,15141,0.124,551
2020-06-20T05:18:15,42.805,6.029,CST-1368DR,6172,8648,15142,0.123,551
2020-06-20T05:21:17,42.805,6.029,CST-1368DR,6172,8647,15141,0.124,551
2020-06-20T05:24:18,42.805,6.029,CST-1368DR,6172,8648,15142,0.123,551
2020-06-20T05:27:20,42.805,6.029,CST-1368DR,6172,8648,15141,0.124,551
2020-06-20T05:30:22,42.805,6.029,CST-1368DR,6172,8645,15137,0.125,551
2020-06-20T05:33:23,42.805,6.029,CST-1368DR,6172,8648,15141,0.124,551
2020-06-20T05:36:25,42.805,6.029,CST-1368DR,6172,8647,15139,0.124,551
2020-06-20T05:39:27,42.805,6.029,CST-1368DR,6172,8643,15132,0.126,551
2020-06-20T05:42:29,42.805,6.029,CST-1368DR,6172,8649,15144,0.123,551
2020-06-20T05:45:30,42.805,6.029,CST-1368DR,6172,8649,15144,0.123,551
2020-06-20T05:48:32,42.805,6.029,CST-1368DR,6172,8649,15144,0.123,551
2020-06-20T05:51:34,42.805,6.029,CST-1368DR,6172,8649,15143,0.123,551
2020-06-20T05:54:35,42.805,6.029,CST-1368DR,6172,8648,15142,0.123,551
2020-06-20T05:57:37,42.805,6.029,CST-1368DR,6172,8649,15143,0.123,551
2020-06-20T06:00:39,42.805,6.029,CST-1368DR,6172,8647,15140,0.124,551
2020-06-20T06:03:40,42.805,6.029,CST-1368DR,6172,8649,15143,0.123,551
2020-06-20T06:06:42,42.805,6.029,CST-1368DR,6172,8649,15143,0.123,551
2020-06-20T06:09:44,42.805,6.029,CST-1368DR,6172,8649,15143,0.123,551
2020-06-20T06:12:45,42.805,6.029,CST-1368DR,6172,8648,15142,0.123,551
2020-06-20T06:15:47,42.805,6.029,CST-1368DR,6172,8649,15143,0.123,551
2020-06-20T06:18:49,42.805,6.029,CST-1368DR,6172,8648,15142,0.123,551
2020-06-20T06:21:51,42.805,6.029,CST-1368DR,6172,8648,15141,0.124,551
2020-06-20T06:24:52,42.805,6.029,CST-1368DR,6172,8649,15143,0.123,551
2020-06-20T06:27:54,42.805,6.029,CST-1368DR,6172,8649,15143,0.123,551
2020-06-20T06:30:56,42.805,6.029,CST-1368DR,6172,8648,15142,0.123,551
2020-06-20T06:33:57,42.805,6.029,CST-1368DR,6172,8648,15142,0.123,551
2020-06-20T06:36:59,42.805,6.029,CST-1368DR,6172,8649,15143,0.123,551
2020-06-20T06:40:01,42.805,6.029,CST-1368DR,6172,8647,15140,0.124,551
2020-06-20T06:43:02,42.805,6.029,CST-1368DR,6172,8648,15142,0.123,551
2020-06-20T06:46:04,42.805,6.029,CST-1368DR,6172,8648,15141,0.124,551
2020-06-20T06:49:06,42.805,6.029,CST-1368DR,6172,8649,15143,0.123,551
2020-06-20T06:52:07,42.805,6.029,CST-1368DR,6172,8648,15142,0.123,551
2020-06-20T06:55:09,42.805,6.029,CST-1368DR,6172,8648,15142,0.123,551
2020-06-20T06:58:11,42.805,6.029,CST-1368DR,6172,8649,15144,0.123,551
2020-06-20T07:01:13,42.805,6.029,CST-1368DR,6172,8649,15143,0.123,551
2020-06-20T07:04:14,42.805,6.029,CST-1368DR,6172,8649,15143,0.123,551
2020-06-20T07:07:16,42.805,6.029,CST-1368DR,6172,8649,15144,0.123,551
2020-06-20T07:10:18,42.805,6.029,CST-1368DR,6171,8648,15145,0.123,551
2020-06-20T07:13:19,42.805,6.029,CST-1368DR,6171,8648,15144,0.123,551
2020-06-20T07:16:21,42.805,6.029,CST-1368DR,6172,8648,15142,0.123,551
2020-06-20T07:19:23,42.805,6.029,CST-1368DR,6172,8648,15142,0.123,551
2020-06-20T07:22:24,42.805,6.029,CST-1368DR,6172,8648,15142,0.123,551
2020-06-20T07:25:26,42.805,6.029,CST-1368DR,6172,8647,15139,0.124,551
2020-06-20T07:28:28,42.805,6.029,CST-1368DR,6172,8648,15142,0.123,551
2020-06-20T07:31:29,42.805,6.029,CST-1368DR,6172,8648,15142,0.123,551
2020-06-20T07:34:31,42.805,6.029,CST-1368DR,6171,8648,15144,0.123,551
2020-06-20T07:37:33,42.805,6.029,CST-1368DR,6172,8649,15143,0.123,551
2020-06-20T07:40:34,42.805,6.029,CST-1368DR,6171,8648,15145,0.123,551
2020-06-20T07:43:36,42.805,6.029,CST-1368DR,6171,8647,15142,0.123,551
2020-06-20T07:46:38,42.805,6.029,CST-1368DR,6171,8649,15146,0.122,551
2020-06-20T07:49:40,42.805,6.029,CST-1368DR,6171,8648,15145,0.123,551
2020-06-20T07:52:41,42.805,6.029,CST-1368DR,6171,8649,15145,0.123,551
2020-06-20T07:55:43,42.805,6.029,CST-1368DR,6171,8649,15146,0.122,551
2020-06-20T07:58:45,42.805,6.029,CST-1368DR,6171,8648,15144,0.123,551
2020-06-20T08:01:46,42.805,6.029,CST-1368DR,6172,8648,15142,0.123,551
2020-06-20T08:04:48,42.805,6.029,CST-1368DR,6171,8647,15143,0.123,551
2020-06-20T08:07:50,42.805,6.029,CST-1368DR,6171,8648,15143,0.123,551
2020-06-20T08:10:52,42.805,6.029,CST-1368DR,6172,8648,15142,0.123,551
2020-06-20T08:13:53,42.805,6.029,CST-1368DR,6171,8648,15144,0.123,551
2020-06-20T08:16:55,42.805,6.029,CST-1368DR,6171,8647,15143,0.123,551
2020-06-20T08:19:57,42.805,6.029,CST-1368DR,6171,8649,15145,0.123,551
2020-06-20T08:22:58,42.805,6.029,CST-1368DR,6171,8648,15144,0.123,551
2020-06-20T08:26:00,42.805,6.029,CST-1368DR,6171,8648,15143,0.123,551
2020-06-20T08:29:02,42.805,6.029,CST-1368DR,6171,8649,15145,0.123,550
2020-06-20T08:32:03,42.805,6.029,CST-1368DR,6171,8648,15145,0.123,551
2020-06-20T08:35:05,42.805,6.029,CST-1368DR,6171,8648,15144,0.123,551
2020-06-20T08:38:07,42.805,6.029,CST-1368DR,6171,8648,15144,0.123,551
2020-06-20T08:41:08,42.805,6.029,CST-1368DR,6171,8648,15144,0.123,551
2020-06-20T08:44:10,42.805,6.029,CST-1368DR,6171,8648,15145,0.123,551
2020-06-20T08:47:12,42.805,6.029,CST-1368DR,6171,8648,15144,0.123,551
2020-06-20T08:50:14,42.805,6.029,CST-1368DR,6171,8649,15146,0.122,551
2020-06-20T08:53:15,42.805,6.029,CST-1368DR,6171,8649,15145,0.123,551
2020-06-20T08:56:17,42.805,6.029,CST-1368DR,6171,8647,15143,0.123,551
2020-06-20T08:59:19,42.805,6.029,CST-1368DR,6171,8648,15145,0.123,551
2020-06-20T09:02:20,42.805,6.029,CST-1368DR,6171,8649,15145,0.123,551
2020-06-20T09:05:22,42.805,6.029,CST-1368DR,6171,8647,15142,0.123,551
2020-06-20T09:08:24,42.805,6.029,CST-1368DR,6171,8647,15142,0.123,551
2020-06-20T09:11:25,42.805,6.029,CST-1368DR,6171,8646,15140,0.124,551
2020-06-20T09:14:27,42.805,6.029,CST-1368DR,6171,8645,15140,0.124,551
2020-06-20T09:17:29,42.805,6.029,CST-1368DR,6171,8647,15142,0.123,551
2020-06-20T09:20:31,42.805,6.029,CST-1368DR,6171,8646,15141,0.124,551
2020-06-20T09:23:32,42.805,6.029,CST-1368DR,6171,8648,15144,0.123,551
2020-06-20T09:26:34,42.805,6.029,CST-1368DR,6171,8648,15145,0.123,551
2020-06-20T09:29:36,42.805,6.029,CST-1368DR,6171,8648,15143,0.123,551
2020-06-20T09:32:38,42.805,6.029,CST-1368DR,6171,8646,15140,0.124,551
2020-06-20T09:35:39,42.805,6.029,CST-1368DR,6171,8647,15143,0.123,551
2020-06-20T09:38:41,42.805,6.029,CST-1368DR,6171,8648,15145,0.123,551
2020-06-20T09:41:43,42.805,6.029,CST-1368DR,6171,8649,15145,0.123,551
2020-06-20T09:44:44,42.805,6.029,CST-1368DR,6171,8647,15143,0.123,551
2020-06-20T09:47:46,42.805,6.029,CST-1368DR,6171,8647,15142,0.123,551
2020-06-20T09:50:48,42.805,6.029,CST-1368DR,6171,8647,15142,0.123,551
2020-06-20T09:53:50,42.805,6.029,CST-1368DR,6171,8648,15145,0.123,550
2020-06-20T09:56:51,42.805,6.029,CST-1368DR,6171,8648,15144,0.123,551
2020-06-20T09:59:53,42.805,6.029,CST-1368DR,6171,8648,15143,0.123,551
2020-06-20T10:02:55,42.805,6.029,CST-1368DR,6171,8648,15144,0.123,551
2020-06-20T10:05:56,42.805,6.029,CST-1368DR,6171,8649,15145,0.123,551
2020-06-20T10:08:58,42.805,6.029,CST-1368DR,6171,8646,15141,0.124,550
2020-06-20T10:12:00,42.805,6.029,CST-1368DR,6171,8648,15144,0.123,551
2020-06-20T10:15:02,42.805,6.029,CST-1368DR,6171,8647,15143,0.123,551
2020-06-20T10:18:03,42.805,6.029,CST-1368DR,6171,8647,15143,0.123,551
2020-06-20T10:21:05,42.805,6.029,CST-1368DR,6171,8646,15141,0.124,551
2020-06-20T10:24:07,42.805,6.029,CST-1368DR,6171,8648,15143,0.123,550
2020-06-20T10:27:08,42.805,6.029,CST-1368DR,6171,8648,15143,0.123,551
2020-06-20T10:30:10,42.805,6.029,CST-1368DR,6171,8648,15144,0.123,551
2020-06-20T10:33:12,42.805,6.029,CST-1368DR,6171,8647,15143,0.123,551
2020-06-20T10:36:14,42.805,6.029,CST-1368DR,6171,8649,15145,0.123,551
2020-06-20T10:39:15,42.805,6.029,CST-1368DR,6171,8648,15144,0.123,551
2020-06-20T10:42:17,42.805,6.029,CST-1368DR,6171,8649,15145,0.123,550
2020-06-20T10:45:19,42.805,6.029,CST-1368DR,6171,8648,15144,0.123,551
2020-06-20T10:48:21,42.805,6.029,CST-1368DR,6171,8648,15145,0.123,551
2020-06-20T10:51:22,42.805,6.029,CST-1368DR,6171,8647,15142,0.123,551
2020-06-20T10:54:24,42.805,6.029,CST-1368DR,6171,8647,15143,0.123,551
2020-06-20T10:57:26,42.805,6.029,CST-1368DR,6171,8648,15143,0.123,551
2020-06-20T11:00:28,42.805,6.029,CST-1368DR,6171,8647,15142,0.123,551
2020-06-20T11:03:29,42.805,6.029,CST-1368DR,6171,8648,15143,0.123,551
2020-06-20T11:06:31,42.805,6.029,CST-1368DR,6171,8648,15145,0.123,551
2020-06-20T11:09:33,42.805,6.029,CST-1368DR,6171,8648,15145,0.123,551
2020-06-20T11:12:34,42.805,6.029,CST-1368DR,6171,8647,15143,0.123,551
2020-06-20T11:15:36,42.805,6.029,CST-1368DR,6171,8648,15143,0.123,551
2020-06-20T11:18:38,42.805,6.029,CST-1368DR,6171,8648,15144,0.123,551
2020-06-20T11:21:39,42.805,6.029,CST-1368DR,6171,8648,15144,0.123,551
2020-06-20T11:24:41,42.805,6.029,CST-1368DR,6171,8648,15144,0.123,551
2020-06-20T11:27:43,42.805,6.029,CST-1368DR,6171,8648,15144,0.123,551
2020-06-20T11:30:44,42.805,6.029,CST-1368DR,6171,8648,15143,0.123,551
2020-06-20T11:33:46,42.805,6.029,CST-1368DR,6171,8647,15143,0.123,551
2020-06-20T11:36:48,42.805,6.029,CST-1368DR,6171,8648,15145,0.123,551
2020-06-20T11:39:49,42.805,6.029,CST-1368DR,6171,8648,15143,0.123,551
2020-06-20T11:42:51,42.805,6.029,CST-1368DR,6171,8648,15143,0.123,551
2020-06-20T11:45:53,42.805,6.029,CST-1368DR,6171,8647,15143,0.123,551
2020-06-20T11:48:55,42.805,6.029,CST-1368DR,6171,8647,15143,0.123,551
2020-06-20T11:51:56,42.805,6.029,CST-1368DR,6171,8646,15140,0.124,551
2020-06-20T11:54:58,42.805,6.029,CST-1368DR,6171,8646,15140,0.124,551
2020-06-20T11:58:00,42.805,6.029,CST-1368DR,6171,8647,15142,0.123,551
2020-06-20T12:01:01,42.805,6.029,CST-1368DR,6171,8648,15144,0.123,551
2020-06-20T12:04:03,42.805,6.029,CST-1368DR,6171,8648,15143,0.123,551
2020-06-20T12:07:05,42.805,6.029,CST-1368DR,6171,8647,15142,0.123,551
2020-06-20T12:10:06,42.805,6.029,CST-1368DR,6171,8647,15143,0.123,551
2020-06-20T12:13:08,42.805,6.029,CST-1368DR,6171,8648,15143,0.123,551
2020-06-20T12:16:10,42.805,6.029,CST-1368DR,6171,8648,15144,0.123,551
2020-06-20T12:19:12,42.805,6.029,CST-1368DR,6171,8647,15143,0.123,551
2020-06-20T12:22:13,42.805,6.029,CST-1368DR,6171,8647,15143,0.123,551
2020-06-20T12:25:15,42.805,6.029,CST-1368DR,6171,8648,15145,0.123,551
2020-06-20T12:28:17,42.805,6.029,CST-1368DR,6171,8648,15143,0.123,551
2020-06-20T12:31:18,42.805,6.029,CST-1368DR,6171,8647,15143,0.123,551
2020-06-20T12:34:20,42.805,6.029,CST-1368DR,6171,8648,15143,0.123,551
2020-06-20T12:37:22,42.805,6.029,CST-1368DR,6171,8648,15143,0.123,551
2020-06-20T12:40:24,42.805,6.029,CST-1368DR,6171,8648,15143,0.123,551
2020-06-20T12:43:25,42.805,6.029,CST-1368DR,6171,8648,15143,0.123,551
2020-06-20T12:46:27,42.805,6.029,CST-1368DR,6171,8648,15143,0.123,550
2020-06-20T12:49:29,42.805,6.029,CST-1368DR,6171,8647,15143,0.123,551
2020-06-20T12:52:31,42.805,6.029,CST-1368DR,6171,8647,15143,0.123,551
2020-06-20T12:55:32,42.805,6.029,CST-1368DR,6171,8648,15143,0.123,551
2020-06-20T12:58:34,42.805,6.029,CST-1368DR,6171,8647,15142,0.123,551
2020-06-20T13:01:36,42.805,6.029,CST-1368DR,6170,8646,15144,0.123,551
2020-06-20T13:04:37,42.805,6.029,CST-1368DR,6171,8646,15141,0.124,551
2020-06-20T13:07:39,42.805,6.029,CST-1368DR,6171,8647,15143,0.123,551
2020-06-20T13:10:41,42.805,6.029,CST-1368DR,6171,8647,15142,0.123,551
2020-06-20T13:13:42,42.805,6.029,CST-1368DR,6170,8647,15145,0.123,551
2020-06-20T13:16:44,42.805,6.029,CST-1368DR,6170,8647,15144,0.123,551
2020-06-20T13:19:46,42.805,6.029,CST-1368DR,6171,8647,15143,0.123,551
2020-06-20T13:22:47,42.805,6.029,CST-1368DR,6170,8647,15145,0.123,551
2020-06-20T13:25:49,42.805,6.029,CST-1368DR,6170,8644,15140,0.124,551
2020-06-20T13:28:51,42.805,6.029,CST-1368DR,6170,8647,15144,0.123,551
2020-06-20T13:31:52,42.805,6.029,CST-1368DR,6170,8646,15144,0.123,551
2020-06-20T13:34:54,42.805,6.029,CST-1368DR,6170,8646,15142,0.123,551
2020-06-20T13:37:56,42.805,6.029,CST-1368DR,6170,8647,15145,0.123,551
2020-06-20T13:40:58,42.805,6.029,CST-1368DR,6170,8642,15135,0.125,551
2020-06-20T13:43:59,42.805,6.029,CST-1368DR,6170,8646,15143,0.123,551
2020-06-20T13:47:01,42.805,6.029,CST-1368DR,6170,8647,15144,0.123,551
2020-06-20T13:50:03,42.805,6.029,CST-1368DR,6170,8646,15143,0.123,551
2020-06-20T13:53:04,42.805,6.029,CST-1368DR,6170,8647,15144,0.123,551
2020-06-20T13:56:06,42.805,6.029,CST-1368DR,6170,8646,15142,0.123,551
2020-06-20T13:59:08,42.805,6.029,CST-1368DR,6170,8646,15144,0.123,551
2020-06-20T14:02:09,42.805,6.029,CST-1368DR,6170,8645,15141,0.124,551
2020-06-20T14:05:11,42.805,6.029,CST-1368DR,6170,8646,15143,0.123,551
2020-06-20T14:08:13,42.805,6.029,CST-1368DR,6170,8646,15143,0.123,551
2020-06-20T14:11:14,42.805,6.029,CST-1368DR,6170,8647,15144,0.123,551
2020-06-20T14:14:16,42.805,6.029,CST-1368DR,6170,8647,15144,0.123,551
2020-06-20T14:17:18,42.805,6.029,CST-1368DR,6170,8647,15144,0.123,551
2020-06-20T14:20:20,42.805,6.029,CST-1368DR,6170,8646,15144,0.123,551
2020-06-20T14:23:21,42.805,6.029,CST-1368DR,6170,8647,15144,0.123,551
2020-06-20T14:26:23,42.805,6.029,CST-1368DR,6170,8645,15142,0.123,551
2020-06-20T14:29:25,42.805,6.029,CST-1368DR,6170,8647,15144,0.123,551
2020-06-20T14:32:27,42.805,6.029,CST-1368DR,6170,8646,15142,0.123,551
2020-06-20T14:35:28,42.805,6.029,CST-1368DR,6170,8645,15141,0.124,551
2020-06-20T14:38:30,42.805,6.029,CST-1368DR,6170,8647,15144,0.123,551
2020-06-20T14:41:32,42.805,6.029,CST-1368DR,6170,8647,15144,0.123,551
2020-06-20T14:44:33,42.805,6.029,CST-1368DR,6170,8646,15143,0.123,551
2020-06-20T14:47:35,42.805,6.029,CST-1368DR,6170,8646,15142,0.123,551
2020-06-20T14:50:37,42.805,6.029,CST-1368DR,6170,8646,15143,0.123,551
2020-06-20T14:53:38,42.805,6.029,CST-1368DR,6170,8647,15145,0.123,551
2020-06-20T14:56:40,42.805,6.029,CST-1368DR,6170,8646,15144,0.123,551
2020-06-20T14:59:42,42.805,6.029,CST-1368DR,6170,8647,15144,0.123,551
2020-06-20T15:02:43,42.805,6.029,CST-1368DR,6170,8645,15142,0.123,551
2020-06-20T15:05:45,42.805,6.029,CST-1368DR,6170,8646,15144,0.123,551
2020-06-20T15:08:47,42.805,6.029,CST-1368DR,6170,8646,15143,0.123,551
2020-06-20T15:11:49,42.805,6.029,CST-1368DR,6170,8645,15141,0.124,551
2020-06-20T15:14:50,42.805,6.029,CST-1368DR,6170,8645,15142,0.123,551
2020-06-20T15:17:52,42.805,6.029,CST-1368DR,6170,8645,15141,0.124,551
2020-06-20T15:20:54,42.805,6.029,CST-1368DR,6170,8645,15142,0.123,551
2020-06-20T15:23:55,42.805,6.029,CST-1368DR,6170,8646,15142,0.123,551
2020-06-20T15:26:57,42.805,6.029,CST-1368DR,6170,8647,15144,0.123,551
2020-06-20T15:29:59,42.805,6.029,CST-1368DR,6170,8645,15142,0.123,551
2020-06-20T15:33:00,42.805,6.029,CST-1368DR,6170,8647,15144,0.123,551
2020-06-20T15:36:02,42.805,6.029,CST-1368DR,6170,8647,15144,0.123,551
2020-06-20T15:39:04,42.805,6.029,CST-1368DR,6170,8646,15144,0.123,551
2020-06-20T15:42:06,42.805,6.029,CST-1368DR,6170,8646,15144,0.123,551
2020-06-20T15:45:07,42.805,6.029,CST-1368DR,6170,8646,15143,0.123,551
2020-06-20T15:48:09,42.805,6.029,CST-1368DR,6170,8646,15143,0.123,551
2020-06-20T15:51:11,42.805,6.029,CST-1368DR,6170,8646,15144,0.123,551
2020-06-20T15:54:13,42.805,6.029,CST-1368DR,6170,8646,15142,0.123,551
2020-06-20T15:57:14,42.805,6.029,CST-1368DR,6170,8646,15142,0.123,551
2020-06-20T16:00:16,42.805,6.029,CST-1368DR,6170,8646,15144,0.123,551
2020-06-20T16:03:18,42.805,6.029,CST-1368DR,6170,8644,15139,0.124,551
2020-06-20T16:06:19,42.805,6.029,CST-1368DR,6170,8645,15141,0.124,551
2020-06-20T16:09:21,42.805,6.029,CST-1368DR,6170,8645,15141,0.124,551
2020-06-20T16:12:23,42.805,6.029,CST-1368DR,6170,8646,15143,0.123,551
2020-06-20T16:15:24,42.805,6.029,CST-1368DR,6170,8645,15141,0.124,551
2020-06-20T16:18:26,42.805,6.029,CST-1368DR,6170,8646,15142,0.123,551
2020-06-20T16:21:28,42.805,6.029,CST-1368DR,6170,8641,15134,0.125,551
2020-06-20T16:24:30,42.805,6.029,CST-1368DR,6170,8646,15143,0.123,551
2020-06-20T16:27:31,42.805,6.029,CST-1368DR,6170,8646,15143,0.123,551
2020-06-20T16:30:33,42.805,6.029,CST-1368DR,6170,8646,15144,0.123,551
2020-06-20T16:33:35,42.805,6.029,CST-1368DR,6170,8645,15142,0.123,551
2020-06-20T16:36:37,42.805,6.029,CST-1368DR,6170,8645,15141,0.124,551
2020-06-20T16:39:38,42.805,6.029,CST-1368DR,6170,8646,15143,0.123,551
2020-06-20T16:42:40,42.805,6.029,CST-1368DR,6170,8645,15141,0.124,551
2020-06-20T16:45:42,42.805,6.029,CST-1368DR,6170,8646,15143,0.123,551
2020-06-20T16:48:43,42.805,6.029,CST-1368DR,6170,8645,15141,0.124,551
2020-06-20T16:51:45,42.805,6.029,CST-1368DR,6170,8646,15143,0.123,551